• In Russia
  • List of Countries
  • For 7 days
  • Water Temperature
  • Satellite Maps
  • Weather Map
  • Weather Widgets
  • user-avatar
    Login

    Hourly Weather Csorna

    Today, 22 September, Friday

    Time Temperature Precipitation Wind Pressure Humidity
    00:00 +10°C° 0.1 mm 5 mps 753 mmHg 81%
    01:00 +10°C° 0.1 mm 5 mps 753 mmHg 82%
    02:00 +10°C° 0 mm 5 mps 753 mmHg 82%
    03:00 +10°C° 0 mm 5 mps 753 mmHg 83%
    04:00 +11°C° 0 mm 4 mps 753 mmHg 83%
    05:00 +10°C° 0 mm 5 mps 753 mmHg 82%
    06:00 +10°C° 0 mm 5 mps 753 mmHg 81%
    07:00 +12°C° 0 mm 5 mps 753 mmHg 80%
    08:00 +13°C° 0 mm 5 mps 754 mmHg 76%
    09:00 +14°C° 0 mm 5 mps 754 mmHg 71%
    10:00 +16°C° 0 mm 5 mps 754 mmHg 67%
    11:00 +16°C° 0 mm 5 mps 754 mmHg 64%
    12:00 +17°C° 0 mm 5 mps 754 mmHg 61%
    13:00 +19°C° 0 mm 5 mps 754 mmHg 58%
    14:00 +18°C° 0.1 mm 4 mps 754 mmHg 60%
    15:00 +18°C° 0.1 mm 4 mps 754 mmHg 61%
    16:00 +18°C° 0.1 mm 4 mps 754 mmHg 63%
    17:00 +16°C° 0 mm 3 mps 754 mmHg 68%
    18:00 +14°C° 0 mm 3 mps 754 mmHg 73%
    19:00 +13°C° 0 mm 3 mps 755 mmHg 78%
    20:00 +12°C° 0 mm 3 mps 755 mmHg 79%
    21:00 +12°C° 0 mm 3 mps 755 mmHg 80%
    22:00 +12°C° 0 mm 3 mps 755 mmHg 81%
    23:00 +11°C° 0 mm 3 mps 755 mmHg 82%

    Tomorrow, 23 September, Saturday

    Time Temperature Precipitation Wind Pressure Humidity
    00:00 +11°C° 0 mm 3 mps 756 mmHg 84%
    01:00 +11°C° 0 mm 3 mps 756 mmHg 86%
    02:00 +10°C° 0 mm 3 mps 755 mmHg 87%
    03:00 +10°C° 0 mm 3 mps 755 mmHg 88%
    04:00 +10°C° 0 mm 3 mps 755 mmHg 89%
    05:00 +10°C° 0 mm 3 mps 755 mmHg 86%
    06:00 +11°C° 0 mm 3 mps 755 mmHg 84%
    07:00 +12°C° 0 mm 4 mps 755 mmHg 81%
    08:00 +13°C° 0 mm 4 mps 755 mmHg 74%
    09:00 +15°C° 0 mm 5 mps 755 mmHg 67%
    10:00 +17°C° 0 mm 5 mps 754 mmHg 60%
    11:00 +17°C° 0 mm 5 mps 754 mmHg 58%
    12:00 +17°C° 0 mm 5 mps 754 mmHg 57%
    13:00 +19°C° 0 mm 5 mps 753 mmHg 55%
    14:00 +18°C° 0.2 mm 4 mps 753 mmHg 60%
    15:00 +18°C° 0.2 mm 3 mps 753 mmHg 64%
    16:00 +17°C° 0.2 mm 2 mps 753 mmHg 68%
    17:00 +16°C° 0.2 mm 2 mps 753 mmHg 73%
    18:00 +15°C° 0.2 mm 2 mps 753 mmHg 77%
    19:00 +14°C° 0.2 mm 3 mps 753 mmHg 82%
    20:00 +13°C° 0.1 mm 3 mps 753 mmHg 82%
    21:00 +13°C° 0.1 mm 3 mps 753 mmHg 82%
    22:00 +13°C° 0.1 mm 3 mps 753 mmHg 83%
    23:00 +13°C° 0.1 mm 3 mps 753 mmHg 83%

    Day after tomorrow, 24 September, Sunday

    Time Temperature Precipitation Wind Pressure Humidity
    00:00 +13°C° 0.1 mm 3 mps 752 mmHg 83%
    01:00 +13°C° 0.1 mm 4 mps 752 mmHg 83%
    02:00 +13°C° 0.2 mm 4 mps 752 mmHg 83%
    03:00 +13°C° 0.2 mm 4 mps 752 mmHg 84%
    04:00 +13°C° 0.2 mm 3 mps 752 mmHg 84%
    05:00 +13°C° 0.3 mm 3 mps 752 mmHg 85%
    06:00 +13°C° 0.3 mm 3 mps 752 mmHg 85%
    07:00 +13°C° 0.3 mm 3 mps 752 mmHg 86%
    08:00 +13°C° 0.3 mm 3 mps 752 mmHg 84%
    09:00 +14°C° 0.3 mm 3 mps 752 mmHg 83%
    10:00 +14°C° 0.3 mm 4 mps 752 mmHg 81%
    11:00 +16°C° 0.1 mm 3 mps 752 mmHg 77%
    12:00 +17°C° 0.1 mm 3 mps 752 mmHg 73%
    13:00 +18°C° 0.1 mm 3 mps 752 mmHg 69%
    14:00 +18°C° 0 mm 3 mps 752 mmHg 69%
    15:00 +18°C° 0 mm 3 mps 752 mmHg 68%
    16:00 +18°C° 0 mm 2 mps 752 mmHg 67%
    17:00 +17°C° 0 mm 2 mps 753 mmHg 72%
    18:00 +16°C° 0 mm 2 mps 753 mmHg 77%
    19:00 +14°C° 0 mm 1 mps 753 mmHg 81%
    20:00 +14°C° 0 mm 1 mps 753 mmHg 83%
    21:00 +14°C° 0 mm 1 mps 753 mmHg 84%
    22:00 +13°C° 0 mm 1 mps 754 mmHg 86%
    23:00 +13°C° 0 mm 1 mps 754 mmHg 86%

    25 September, Monday

    Time Temperature Precipitation Wind Pressure Humidity
    00:00 +13°C° 0 mm 1 mps 754 mmHg 87%
    01:00 +13°C° 0 mm 1 mps 754 mmHg 87%
    02:00 +13°C° 0.1 mm 1 mps 754 mmHg 88%
    03:00 +13°C° 0.1 mm 1 mps 754 mmHg 89%
    04:00 +13°C° 0.1 mm 2 mps 754 mmHg 89%
    05:00 +13°C° 0.4 mm 2 mps 754 mmHg 90%
    06:00 +13°C° 0.4 mm 2 mps 754 mmHg 91%
    07:00 +13°C° 0.4 mm 2 mps 754 mmHg 92%
    08:00 +13°C° 1.4 mm 2 mps 754 mmHg 92%
    09:00 +14°C° 1.4 mm 2 mps 754 mmHg 93%
    10:00 +13°C° 1.4 mm 3 mps 755 mmHg 93%
    11:00 +13°C° 1.2 mm 3 mps 755 mmHg 91%
    12:00 +14°C° 1.2 mm 3 mps 754 mmHg 89%
    13:00 +15°C° 1.2 mm 2 mps 754 mmHg 88%
    14:00 +16°C° 0.4 mm 2 mps 754 mmHg 87%
    15:00 +16°C° 0.4 mm 2 mps 754 mmHg 87%
    16:00 +16°C° 0.4 mm 2 mps 754 mmHg 86%
    17:00 +15°C° 0.2 mm 2 mps 754 mmHg 89%
    18:00 +14°C° 0.2 mm 2 mps 754 mmHg 92%
    19:00 +14°C° 0.2 mm 1 mps 754 mmHg 95%
    20:00 +13°C° 0.2 mm 1 mps 754 mmHg 95%
    21:00 +13°C° 0.2 mm 1 mps 754 mmHg 95%
    22:00 +13°C° 0.2 mm 1 mps 754 mmHg 95%
    23:00 +13°C° 0 mm 1 mps 754 mmHg 95%

    26 September, Tuesday

    Time Temperature Precipitation Wind Pressure Humidity
    00:00 +13°C° 0 mm 1 mps 754 mmHg 95%
    01:00 +12°C° 0 mm 1 mps 754 mmHg 95%
    02:00 +12°C° 0 mm 1 mps 754 mmHg 95%
    03:00 +12°C° 0 mm 1 mps 754 mmHg 94%
    04:00 +12°C° 0 mm 1 mps 754 mmHg 94%
    05:00 +13°C° 0 mm 1 mps 754 mmHg 93%
    06:00 +13°C° 0 mm 1 mps 754 mmHg 92%
    07:00 +13°C° 0 mm 1 mps 754 mmHg 91%
    08:00 +15°C° 0.1 mm 1 mps 754 mmHg 86%
    09:00 +18°C° 0.1 mm 1 mps 754 mmHg 80%
    10:00 +19°C° 0.1 mm 1 mps 755 mmHg 74%
    11:00 +20°C° 0 mm 1 mps 754 mmHg 70%
    12:00 +20°C° 0 mm 2 mps 754 mmHg 65%
    13:00 +21°C° 0 mm 2 mps 754 mmHg 61%
    14:00 +23°C° 0 mm 2 mps 754 mmHg 60%
    15:00 +23°C° 0 mm 2 mps 754 mmHg 60%
    16:00 +23°C° 0 mm 1 mps 754 mmHg 59%
    17:00 +21°C° 0 mm 2 mps 754 mmHg 65%
    18:00 +19°C° 0 mm 2 mps 754 mmHg 70%
    19:00 +17°C° 0 mm 2 mps 755 mmHg 75%
    20:00 +17°C° 0 mm 2 mps 755 mmHg 77%
    21:00 +16°C° 0 mm 2 mps 755 mmHg 79%
    22:00 +16°C° 0 mm 2 mps 755 mmHg 80%
    23:00 +15°C° 0 mm 2 mps 755 mmHg 81%

    27 September, Wednesday

    Time Temperature Precipitation Wind Pressure Humidity
    00:00 +15°C° 0 mm 1 mps 755 mmHg 81%
    01:00 +15°C° 0 mm 1 mps 755 mmHg 82%
    02:00 +15°C° 0 mm 1 mps 755 mmHg 82%
    03:00 +14°C° 0 mm 1 mps 755 mmHg 83%
    04:00 +14°C° 0 mm 1 mps 756 mmHg 83%
    05:00 +14°C° 0 mm 1 mps 756 mmHg 82%
    06:00 +15°C° 0 mm 1 mps 756 mmHg 81%
    07:00 +15°C° 0 mm 1 mps 756 mmHg 80%
    08:00 +18°C° 0 mm 1 mps 757 mmHg 73%
    09:00 +20°C° 0 mm 1 mps 757 mmHg 66%
    10:00 +21°C° 0 mm 2 mps 757 mmHg 59%
    11:00 +23°C° 0 mm 2 mps 757 mmHg 55%
    12:00 +24°C° 0 mm 2 mps 757 mmHg 52%
    13:00 +25°C° 0 mm 2 mps 757 mmHg 48%
    14:00 +25°C° 0 mm 2 mps 757 mmHg 50%
    15:00 +25°C° 0 mm 2 mps 757 mmHg 51%
    16:00 +25°C° 0 mm 2 mps 757 mmHg 53%
    17:00 +23°C° 0 mm 1 mps 757 mmHg 57%
    18:00 +21°C° 0 mm 1 mps 757 mmHg 62%
    19:00 +19°C° 0 mm 1 mps 757 mmHg 66%
    20:00 +19°C° 0 mm 1 mps 758 mmHg 68%
    21:00 +18°C° 0 mm 1 mps 758 mmHg 70%
    22:00 +18°C° 0 mm 1 mps 758 mmHg 72%
    23:00 +16°C° 0 mm 1 mps 758 mmHg 73%
    Show more